User: anonymous   Login
Location: Unspecified
(0.0000°N, 0.0000°E)
Time: 14:40:42
(UTC+00:00)
Language:

ASTRA 1KR - Orbit

View from above orbital plane
View from above orbital plane
View from above satellite
View from above satellite

Ground track
Ground track

The orbit data is extracted from the following two-line orbital elements,

1 29055U 06012A   15106.15972394  .00000000  00000-0  10000-3 0  9997
2 29055 000.0520 304.5279 0001055 126.5001 209.6513 01.00272283 32866
Epoch (UTC): 16 April 2015 03:50:00
Eccentricity: 0.0001055
inclination: 0.0520°
perigee height: 35781 km
apogee height: 35790 km
right ascension of ascending node: 304.5279°
argument of perigee: 126.5001°
revolutions per day: 1.00272283
mean anomaly at epoch: 209.6513°
orbit number at epoch: 3286

The dashed part of the orbit path shows where the satellite is in the earth's shadow,  

DLR